This demonstration page uses our WeatherBlox Daily Observations layout. Learn more.

Left ArrowRight Arrow

53.62937, 11.41316

Hourly Observations for May 23, 2016

Temp ( °F °C ) Dew Point ( °F °C ) Humidity (%) Winds ( mph kmh ) Pressure ( in mb ) Visibility ( mi km ) Precip ( " mm )
6:20 am 06:20 Mostly Cloudy 59 15 59 15 100 100 VRB 2 4 29.77 1008 4 7 N/A
6:50 am 06:50 Mostly Cloudy 59 15 59 15 100 100 NNE 6 9 29.74 1007 5 8 N/A
7:20 am 07:20 Mostly Cloudy 61 16 59 15 94 94 VRB 2 4 29.74 1007 30 48 N/A
7:50 am 07:50 Mostly Cloudy 61 16 59 15 94 94 W 6 9 29.77 1008 30 48 N/A
8:20 am 08:20 Mostly Cloudy with Light Rain 61 16 59 15 94 94 WNW 6 9 29.77 1008 30 48 N/A
8:50 am 08:50 Mostly Cloudy with Light Rain 61 16 59 15 94 94 VRB 2 4 29.77 1008 30 48 N/A
9:20 am 09:20 Mostly Cloudy 61 16 59 15 94 94 N 5 7 29.77 1008 30 48 N/A
9:50 am 09:50 Mostly Cloudy 63 17 59 15 88 88 NNW 5 7 29.77 1008 30 48 N/A
10:20 am 10:20 Mostly Cloudy 63 17 59 15 88 88 NNE 3 6 29.80 1009 30 48 N/A
10:50 am 10:50 Mostly Cloudy 63 17 59 15 88 88 NW 5 7 29.80 1009 30 48 N/A
11:20 am 11:20 Mostly Cloudy 64 18 61 16 88 88 NW 6 9 29.80 1009 30 48 N/A
11:50 am 11:50 Mostly Cloudy 66 19 59 15 78 78 NW 7 11 29.77 1008 30 48 N/A
12:20 pm 12:20 Mostly Sunny 66 19 59 15 78 78 NNW 6 9 29.77 1008 7 11 N/A
12:50 pm 12:50 Mostly Cloudy 66 19 61 16 83 83 NNW 5 7 29.80 1009 30 48 N/A
1:20 pm 13:20 Mostly Sunny 68 20 61 16 78 78 N 6 9 29.80 1009 7 11 N/A
1:50 pm 13:50 Mostly Sunny 70 21 61 16 73 73 NW 7 11 29.77 1008 7 11 N/A
2:20 pm 14:20 Mostly Sunny 70 21 61 16 73 73 NNW 5 7 29.80 1009 7 11 N/A
2:50 pm 14:50 Mostly Sunny 70 21 57 14 64 64 NW 6 9 29.80 1009 7 11 N/A
3:20 pm 15:20 Mostly Sunny 70 21 57 14 64 64 N 6 9 29.77 1008 7 11 N/A
3:50 pm 15:50 Mostly Sunny 72 22 57 14 61 61 N 7 11 29.80 1009 7 11 N/A
4:20 pm 16:20 Mostly Sunny 72 22 57 14 61 61 N 6 9 29.80 1009 7 11 N/A
4:50 pm 16:50 Mostly Sunny 72 22 59 15 65 65 N 8 13 29.77 1008 7 11 N/A
5:20 pm 17:20 Mostly Sunny 72 22 59 15 65 65 N 7 11 29.77 1008 7 11 N/A
5:50 pm 17:50 Mostly Sunny 72 22 57 14 61 61 N 8 13 29.77 1008 7 11 N/A
6:20 pm 18:20 Mostly Sunny 72 22 57 14 61 61 NNW 9 15 29.77 1008 7 11 N/A
6:50 pm 18:50 Mostly Sunny 70 21 61 16 73 73 N 7 11 29.77 1008 7 11 N/A

Powered by AerisWeather